This demonstration page uses our WeatherBlox Daily Observations layout. Learn more.

Left ArrowRight Arrow

39.08367, -84.50855

Hourly Observations for November 11, 2015

Temp ( °F °C ) Dew Point ( °F °C ) Humidity (%) Winds ( mph kmh ) Pressure ( in mb ) Visibility ( mi km ) Precip ( " mm )
12:53 am 00:53 Mostly Cloudy with Fog 38 3.3 38 3.3 100 100 Calm 30.09 1019 0 0 0.00 0.00
1:53 am 01:53 Mostly Cloudy with Light Snow 37 2.8 37 2.8 100 100 Calm 30.09 1019 0 0 0.00 0.03
2:53 am 02:53 Mostly Cloudy with Fog 36 2.2 36 2.2 100 100 NE 3 6 30.09 1019 0 0 0.00 0.03
3:53 am 03:53 Mostly Cloudy with Fog 36 2.2 36 2.2 100 100 NE 3 6 30.10 1019 0 0 0.01 0.25
4:53 am 04:53 Mostly Cloudy with Light Snow 35 1.7 35 1.7 100 100 Calm 30.09 1019 0 0 0.00 0.03
5:53 am 05:53 Mostly Cloudy with Fog 35 1.7 35 1.7 100 100 Calm 30.10 1019 0 0 0.00 0.03
6:53 am 06:53 Mostly Cloudy with Fog 35 1.7 35 1.7 100 100 ENE 3 6 30.11 1020 0 0 0.00 0.03
7:53 am 07:53 Mostly Cloudy with Fog 35 1.7 35 1.7 100 100 NE 3 6 30.12 1020 0 0 0.00 0.00
8:53 am 08:53 Mostly Cloudy with Fog 37 2.8 37 2.8 100 100 Calm 30.14 1021 0 0 0.00 0.00
9:15 am 09:15 Cloudy with Mist and Fog 38 3.3 38 3.3 100 100 Calm 30.12 1020 1 2 0.00 0.00
9:44 am 09:44 Partly Cloudy with Mist and Fog 41 5 41 5 100 100 Calm 30.12 1020 2 3 0.00 0.00
9:53 am 09:53 Partly Cloudy with Mist and Fog 40 4.4 40 4.4 100 100 Calm 30.12 1020 3 5 0.00 0.00
10:53 am 10:53 Sunny 47 8.3 44 6.7 90 90 Calm 30.10 1019 10 16 0.00 0.00
11:53 am 11:53 Sunny 54 12.2 45 7.2 72 72 VRB 5 7 30.07 1018 10 16 0.00 0.00
12:53 pm 12:53 Sunny 57 13.9 46 7.8 67 67 Calm 30.03 1017 10 16 0.00 0.00
1:53 pm 13:53 Sunny 61 16.1 44 6.7 54 54 S 6 9 30.00 1016 10 16 0.00 0.00
2:53 pm 14:53 Sunny 60 15.6 42 5.6 52 52 S 8 13 29.97 1015 10 16 0.00 0.00
3:53 pm 15:53 Sunny 59 15 42 5.6 54 54 SSE 7 11 29.96 1015 10 16 0.00 0.00
4:53 pm 16:53 Sunny 56 13.3 43 6.1 62 62 S 6 9 29.94 1014 10 16 0.00 0.00
5:53 pm 17:53 Clear 55 12.8 42 5.6 62 62 S 5 7 29.92 1013 10 16 0.00 0.00
6:53 pm 18:53 Clear 54 12.2 42 5.6 64 64 S 6 9 29.88 1012 10 16 0.00 0.00
7:53 pm 19:53 Clear 55 12.8 41 5 59 59 VRB 5 7 29.85 1011 10 16 0.00 0.00
8:53 pm 20:53 Mostly Clear 54 12.2 42 5.6 64 64 Calm 29.85 1011 10 16 0.00 0.03
9:53 pm 21:53 Mostly Cloudy with Light Rain 55 12.8 41 5 59 59 S 12 19 29.79 1009 10 16 0.00 0.03
10:53 pm 22:53 Mostly Cloudy 54 12.2 43 6.1 67 67 WSW 3 6 29.75 1008 10 16 0.04 1.02
11:53 pm 23:53 Cloudy with Rain 50 10 48 8.9 93 93 E 5 7 29.72 1007 5 8 0.07 1.78

Powered by AerisWeather